This demonstration page uses our WeatherBlox Daily Observations layout. Learn more.

Left ArrowRight Arrow

Hourly Observations for March 27, 2018

Temp ( °F °C ) Dew Point ( °F °C ) Humidity (%) Winds ( mph kmh ) Pressure ( in mb ) Visibility ( mi km ) Precip ( " mm )
12:15 am 00:15 Clear 37 3 32 undefined 81 81 S 7 11 30.65 1038 10 16 N/A
12:35 am 00:35 Clear 37 3 32 undefined 81 81 S 10 17 30.65 1038 10 16 N/A
12:55 am 00:55 Clear 37 3 32 undefined 81 81 S 7 11 30.65 1038 10 16 N/A
1:15 am 01:15 Clear 37 3 32 undefined 81 81 SSE 7 11 30.65 1038 10 16 N/A
1:35 am 01:35 Clear 37 3 32 undefined 81 81 S 6 9 30.65 1038 10 16 N/A
1:55 am 01:55 Clear 36 2 32 undefined 87 87 S 7 11 30.65 1038 10 16 N/A
2:15 am 02:15 Clear 36 2 32 undefined 87 87 S 6 9 30.62 1037 10 16 N/A
2:35 am 02:35 Clear 36 2 32 undefined 87 87 S 5 7 30.62 1037 10 16 N/A
2:55 am 02:55 Clear 34 1 32 undefined 93 93 SSW 5 7 30.62 1037 10 16 N/A
3:15 am 03:15 Clear 34 1 32 undefined 93 93 SSW 3 6 30.62 1037 10 16 N/A
3:35 am 03:35 Clear 34 1 32 undefined 93 93 S 3 6 30.59 1036 10 16 N/A
3:55 am 03:55 Clear 34 1 32 undefined 93 93 N N/A 30.59 1036 10 16 N/A
4:15 am 04:15 Clear 34 1 32 undefined 93 93 SSE 5 7 30.56 1035 10 16 N/A
4:35 am 04:35 Clear 34 1 32 undefined 93 93 S 5 7 30.56 1035 10 16 N/A
4:55 am 04:55 Clear 36 2 32 undefined 87 87 SSE 5 7 30.56 1035 10 16 N/A
5:15 am 05:15 Clear 34 1 32 undefined 93 93 SSE 5 7 30.56 1035 10 16 N/A
5:35 am 05:35 Clear 32 undefined 32 undefined 100 100 S 3 6 30.56 1035 10 16 N/A
5:55 am 05:55 Clear 32 undefined 32 undefined 100 100 SSW 3 6 30.56 1035 10 16 N/A
6:15 am 06:15 Clear 32 undefined 32 undefined 100 100 N N/A 30.56 1035 10 16 N/A
6:35 am 06:35 Clear 34 1 32 undefined 93 93 N N/A 30.56 1035 10 16 N/A
6:55 am 06:55 Clear 34 1 32 undefined 93 93 N N/A 30.56 1035 10 16 N/A
7:15 am 07:15 Sunny 34 1 32 undefined 93 93 N N/A 30.53 1034 10 16 N/A
7:35 am 07:35 Sunny 32 undefined 32 undefined 100 100 N N/A 30.56 1035 10 16 N/A
7:55 am 07:55 Sunny 34 1 32 undefined 93 93 S 5 7 30.56 1035 10 16 N/A
8:15 am 08:15 Sunny 34 1 32 undefined 93 93 S 5 7 30.56 1035 10 16 N/A
8:35 am 08:35 Partly Cloudy 36 2 32 undefined 87 87 S 7 11 30.56 1035 10 16 N/A
8:55 am 08:55 Mostly Cloudy 36 2 32 undefined 87 87 S 7 11 30.56 1035 10 16 N/A
9:15 am 09:15 Cloudy 36 2 32 undefined 87 87 S 7 11 30.56 1035 10 16 N/A
9:35 am 09:35 Cloudy 37 3 32 undefined 81 81 S 7 11 30.56 1035 10 16 N/A
9:55 am 09:55 Cloudy 39 4 32 undefined 75 75 S 10 17 30.56 1035 10 16 N/A
10:15 am 10:15 Cloudy 39 4 32 undefined 75 75 S 10 17 30.56 1035 10 16 N/A
10:35 am 10:35 Cloudy 39 4 32 undefined 75 75 S 9 15 30.56 1035 10 16 N/A
10:55 am 10:55 Cloudy 41 5 32 undefined 70 70 S 12 19 30.53 1034 10 16 N/A
11:15 am 11:15 Cloudy with Drizzle 41 5 34 1 76 76 S 8 13 30.53 1034 10 16 N/A
11:35 am 11:35 Cloudy with Light Rain 41 5 34 1 76 76 SSW 9 15 30.53 1034 10 16 N/A
11:55 am 11:55 Cloudy 43 6 34 1 71 71 SSW 9 15 30.53 1034 10 16 N/A
12:15 pm 12:15 Cloudy with Light Rain 43 6 34 1 71 71 S 12 19 30.53 1034 10 16 N/A
12:35 pm 12:35 Cloudy with Drizzle 43 6 36 2 76 76 SSW 10 17 30.53 1034 10 16 N/A
12:55 pm 12:55 Cloudy with Light Rain 41 5 37 3 87 87 S 8 13 30.53 1034 7 11 N/A
1:15 pm 13:15 Cloudy with Light Rain 41 5 37 3 87 87 S 9 15 30.50 1033 7 11 N/A
1:35 pm 13:35 Cloudy with Drizzle 43 6 39 4 87 87 SSW 7 11 30.48 1032 7 11 N/A
1:55 pm 13:55 Cloudy with Drizzle 41 5 37 3 87 87 S 9 15 30.48 1032 7 11 N/A
2:15 pm 14:15 Cloudy with Light Rain 41 5 37 3 87 87 S 9 15 30.45 1031 10 16 0.01 0.25
2:35 pm 14:35 Cloudy with Rain 43 6 39 4 87 87 SW 8 13 30.45 1031 7 11 0.01 0.25
2:55 pm 14:55 Cloudy with Light Rain 43 6 41 5 93 93 S 9 15 30.42 1030 5 8 0.02 0.51
3:15 pm 15:15 Cloudy with Light Rain 41 5 41 5 100 100 SSW 7 11 30.42 1030 10 16 N/A
3:35 pm 15:35 Cloudy with Light Rain 43 6 39 4 87 87 SSW 8 13 30.42 1030 10 16 N/A
3:55 pm 15:55 Cloudy with Drizzle 43 6 39 4 87 87 SSW 10 17 30.39 1029 10 16 N/A
4:15 pm 16:15 Cloudy with Drizzle 41 5 39 4 93 93 S 14 22 30.36 1028 10 16 N/A
4:35 pm 16:35 Cloudy with Drizzle 41 5 39 4 93 93 S 12 19 30.36 1028 10 16 N/A
4:55 pm 16:55 Cloudy 41 5 39 4 93 93 S 13 20 30.36 1028 10 16 N/A
5:15 pm 17:15 Cloudy with Drizzle 41 5 39 4 93 93 S 8 13 30.36 1028 10 16 N/A
5:35 pm 17:35 Cloudy with Light Rain 41 5 39 4 93 93 S 12 19 30.33 1027 5 8 0.01 0.25
5:55 pm 17:55 Cloudy with Rain 41 5 39 4 93 93 SSW 7 11 30.33 1027 7 11 0.02 0.51
6:15 pm 18:15 Cloudy with Drizzle 39 4 39 4 100 100 SSW 9 15 30.33 1027 10 16 N/A
6:35 pm 18:35 Cloudy with Light Rain 39 4 39 4 100 100 SSW 8 13 30.33 1027 10 16 N/A
6:55 pm 18:55 Cloudy with Rain 39 4 39 4 100 100 SSW 5 7 30.33 1027 7 11 0.01 0.25
7:15 pm 19:15 Cloudy 39 4 39 4 100 100 SSW 7 11 30.33 1027 10 16 N/A
7:35 pm 19:35 Cloudy with Drizzle 37 3 37 3 100 100 S 7 11 30.33 1027 10 16 N/A
7:55 pm 19:55 Cloudy 39 4 39 4 100 100 S 7 11 30.30 1026 10 16 N/A
8:15 pm 20:15 Cloudy 37 3 37 3 100 100 SSW 7 11 30.30 1026 10 16 N/A
8:35 pm 20:35 Cloudy with Light Rain 37 3 37 3 100 100 S 6 9 30.30 1026 10 16 N/A
8:55 pm 20:55 Cloudy with Light Rain 37 3 37 3 100 100 S 7 11 30.30 1026 10 16 N/A
9:15 pm 21:15 Cloudy 37 3 37 3 100 100 S 7 11 30.30 1026 10 16 N/A
9:35 pm 21:35 Cloudy 37 3 37 3 100 100 S 6 9 30.30 1026 10 16 N/A
9:55 pm 21:55 Cloudy 37 3 37 3 100 100 S 6 9 30.27 1025 10 16 N/A
10:15 pm 22:15 Cloudy 37 3 37 3 100 100 S 6 9 30.27 1025 10 16 N/A
10:35 pm 22:35 Cloudy 37 3 37 3 100 100 SSW 7 11 30.27 1025 10 16 N/A
10:55 pm 22:55 Cloudy 37 3 37 3 100 100 S 7 11 30.24 1024 7 11 N/A
11:15 pm 23:15 Cloudy 37 3 37 3 100 100 SSW 5 7 30.24 1024 10 16 N/A
11:35 pm 23:35 Cloudy 37 3 37 3 100 100 S 5 7 30.24 1024 10 16 N/A
11:55 pm 23:55 Cloudy 37 3 37 3 100 100 S 6 9 30.24 1024 7 11 N/A

Powered by AerisWeather